CW5439 Weather Reports


Display with metric or nautical units.
time (UTC)temp
F
wind
direction
speed
MPH
gust
MPH
rain 1hr
in
rain 24hr
in
rain mn
in
humidity
%
barometer
mb
20260901110705 60 223 11.0 22.0 0.00 0.01 0.01 90 1009.4
20260901105705 60 221 9.0 22.0 0.00 0.01 0.01 90 1009.5
20260901105206 60 210 8.0 19.0 0.00 0.01 0.01 90 1009.6
20260901104705 60 294 7.0 22.0 0.00 0.01 0.01 90 1009.5
20260901104208 60 263 8.0 22.0 0.00 0.01 0.01 90 1009.6
20260901103705 60 244 9.0 26.0 0.00 0.01 0.01 90 1009.5
20260901103205 60 247 10.0 26.0 0.00 0.01 0.01 90 1009.6
20260901102705 60 241 11.0 23.0 0.00 0.01 0.01 91 1009.5
20260901102205 60 215 11.0 23.0 0.00 0.01 0.01 91 1009.4
20260901101723 60 236 10.0 20.0 0.00 0.01 0.01 91 1009.5
20260901100704 60 256 12.0 29.0 0.01 0.01 0.01 92 1009.5
20260901100205 59 195 10.0 29.0 0.01 0.01 0.01 92 1009.6
20260901095705 59 236 11.0 29.0 0.01 0.01 0.01 91 1009.5
20260901095209 60 211 11.0 29.0 0.01 0.01 0.01 91 1009.5
20260901094705 60 209 10.0 22.0 0.01 0.01 0.01 92 1009.6
20260901094205 60 247 12.0 22.0 0.01 0.01 0.01 92 1009.6
20260901093705 59 246 12.0 21.0 0.01 0.01 0.01 92 1009.8
20260901092205 58 263 9.0 21.0 0.01 0.01 0.01 92 1010.1
20260901091705 58 213 9.0 19.0 0.01 0.01 0.01 93 1010.1
20260901090205 57 250 10.0 20.0 0.00 0.00 0.00 91 1010.0
20260901085705 57 202 9.0 20.0 0.00 0.00 0.00 91 1010.0
20260901085205 57 188 9.0 18.0 0.00 0.00 0.00 91 1010.0
20260901084705 57 204 8.0 21.0 0.00 0.00 0.00 91 1010.0
20260901084205 57 216 8.0 21.0 0.00 0.00 0.00 90 1010.0
20260901083722 57 215 9.0 21.0 0.00 0.00 0.00 90 1010.1
20260901083205 57 197 8.0 16.0 0.00 0.00 0.00 90 1010.0
20260901082706 57 221 8.0 20.0 0.00 0.00 0.00 90 1010.1
20260901082205 57 257 8.0 20.0 0.00 0.00 0.00 90 1010.2
20260901081705 57 252 8.0 20.0 0.00 0.00 0.00 90 1010.2
20260901080705 57 239 7.0 18.0 0.00 0.00 0.00 90 1010.3
20260901080205 57 229 7.0 18.0 0.00 0.00 0.00 90 1010.3
20260901075706 57 242 7.0 17.0 0.00 0.00 0.00 90 1010.3
20260901075205 57 221 7.0 17.0 0.00 0.00 0.00 90 1010.4
20260901074707 57 215 7.0 16.0 0.00 0.00 0.00 90 1010.5
20260901074205 57 195 7.0 16.0 0.00 0.00 0.00 90 1010.5
20260901073705 57 242 6.0 17.0 0.00 0.00 0.00 90 1010.5
20260901073207 57 213 7.0 17.0 0.00 0.00 0.00 90 1010.5
20260901072706 57 215 7.0 17.0 0.00 0.00 0.00 90 1010.5
20260901072206 57 240 6.0 17.0 0.00 0.00 0.00 91 1010.5
20260901071705 57 223 7.0 17.0 0.00 0.00 0.00 91 1010.5
20260901071227 57 207 8.0 17.0 0.00 0.00 0.00 91 1010.5
20260901070705 56 286 7.0 14.0 0.00 0.00 0.00 91 1010.5
20260901070205 56 228 6.0 14.0 0.00 0.00 0.00 91 1010.4
20260901065705 56 176 7.0 15.0 0.00 0.00 0.00 92 1010.4
20260901065205 56 238 7.0 15.0 0.00 0.00 0.00 92 1010.4
20260901064705 56 213 6.0 14.0 0.00 0.00 0.00 92 1010.5
20260901064205 56 202 5.0 14.0 0.00 0.00 0.00 92 1010.6
20260901063704 56 228 6.0 15.0 0.00 0.00 0.00 93 1010.6
20260901062705 56 206 7.0 16.0 0.00 0.00 0.00 93 1010.7
20260901061705 55 200 8.0 16.0 0.00 0.00 0.00 93 1010.6
20260901061210 55 253 7.0 14.0 0.00 0.00 0.00 93 1010.8
20260901060705 55 0 7.0 19.0 0.00 0.00 0.00 93 1010.8
20260901060205 55 0 7.0 19.0 0.00 0.00 0.00 93 1010.9
20260901055704 55 214 7.0 19.0 0.00 0.00 0.00 93 1010.9
20260901055205 55 266 6.0 17.0 0.00 0.00 0.00 93 1010.9
20260901054705 55 0 6.0 17.0 0.00 0.00 0.00 93 1010.9
20260901053205 55 203 5.0 14.0 0.00 0.00 0.00 93 1011.1
20260901052706 55 215 5.0 14.0 0.00 0.00 0.00 93 1011.2
20260901052205 54 246 6.0 14.0 0.00 0.00 0.00 93 1011.2
20260901051705 54 215 6.0 16.0 0.00 0.00 0.00 93 1011.2
20260901051205 54 212 6.0 16.0 0.00 0.00 0.00 93 1011.2
20260901050726 54 0 6.0 16.0 0.00 0.00 0.00 93 1011.1
20260901050205 54 221 7.0 16.0 0.00 0.00 0.00 92 1011.2
20260901045705 54 200 6.0 14.0 0.00 0.00 0.00 92 1011.2
20260901045205 55 192 4.0 12.0 0.00 0.00 0.00 92 1011.1
20260901044705 55 0 3.0 9.0 0.00 0.00 0.00 92 1011.2
20260901044206 55 188 3.0 9.0 0.00 0.00 0.00 92 1011.2
20260901043705 55 225 3.0 12.0 0.00 0.00 0.00 92 1011.3
20260901043205 55 221 5.0 13.0 0.00 0.00 0.00 92 1011.3
20260901042705 55 202 6.0 13.0 0.00 0.00 0.00 92 1011.3
20260901042205 55 205 6.0 13.0 0.00 0.00 0.00 92 1011.4
20260901041709 55 200 5.0 12.0 0.00 0.01 0.00 92 1011.4
20260901040706 55 213 5.0 14.0 0.00 0.01 0.00 92 1011.4
20260901040205 55 229 6.0 14.0 0.00 0.01 0.00 92 1011.4
20260901035705 55 262 7.0 14.0 0.00 0.01 0.00 92 1011.4
20260901035205 55 239 7.0 14.0 0.00 0.01 0.00 92 1011.4
20260901034705 55 217 7.0 14.0 0.00 0.01 0.00 92 1011.5
20260901034205 55 208 7.0 16.0 0.00 0.01 0.00 92 1011.5
20260901033704 54 272 6.0 16.0 0.00 0.01 0.00 92 1011.6
20260901033205 54 230 7.0 15.0 0.00 0.01 0.00 92 1011.5
20260901032705 54 215 7.0 15.0 0.00 0.01 0.00 92 1011.6
20260901032205 54 215 6.0 13.0 0.00 0.01 0.00 92 1011.7
20260901031705 54 211 5.0 13.0 0.00 0.01 0.00 92 1011.7
20260901031205 54 247 5.0 13.0 0.00 0.01 0.00 92 1011.8
20260901030705 54 223 6.0 13.0 0.00 0.01 0.00 92 1011.8
20260901030205 54 206 6.0 13.0 0.00 0.01 0.00 92 1011.8
20260901025705 54 248 4.0 11.0 0.00 0.01 0.00 92 1011.8
20260901025205 54 209 4.0 8.0 0.00 0.01 0.00 92 1011.8
20260901024706 54 211 4.0 8.0 0.00 0.01 0.00 92 1011.8
20260901024205 54 219 3.0 8.0 0.00 0.01 0.00 92 1011.8
20260901023705 53 225 3.0 8.0 0.00 0.01 0.00 92 1011.9
20260901023207 53 217 3.0 8.0 0.00 0.01 0.00 92 1011.9
20260901022708 53 200 3.0 9.0 0.00 0.01 0.00 92 1011.9
20260901022204 53 215 3.0 9.0 0.00 0.01 0.00 92 1012.0
20260901021204 53 218 4.0 11.0 0.00 0.01 0.00 92 1012.1
20260901020706 53 0 5.0 11.0 0.00 0.01 0.00 92 1012.1
20260901020205 53 211 5.0 10.0 0.00 0.01 0.00 92 1012.1
20260901015706 53 231 4.0 10.0 0.00 0.01 0.00 92 1012.1
20260901015207 53 217 4.0 11.0 0.00 0.01 0.00 92 1012.1
20260901014706 53 229 4.0 11.0 0.00 0.01 0.00 92 1012.1
20260901014205 53 215 3.0 7.0 0.00 0.01 0.00 91 1012.2
20260901013705 53 212 3.0 7.0 0.00 0.01 0.00 91 1012.3
20260901012705 52 220 1.0 5.0 0.00 0.01 0.00 91 1012.4
20260901011705 52 216 1.0 7.0 0.00 0.01 0.00 91 1012.5
20260901011205 52 238 2.0 7.0 0.00 0.01 0.00 91 1012.5
20260901010705 52 215 2.0 5.0 0.00 0.01 0.00 91 1012.5
20260901010205 52 222 1.0 5.0 0.00 0.01 0.00 91 1012.5
20260901005705 52 237 1.0 5.0 0.00 0.01 0.00 91 1012.5
20260901005205 52 241 0.0 5.0 0.00 0.01 0.00 90 1012.5
20260901004704 52 225 0.0 4.0 0.00 0.01 0.00 90 1012.5
20260901004205 52 238 0.0 4.0 0.00 0.01 0.00 90 1012.7
20260901003705 52 226 1.0 5.0 0.00 0.01 0.00 90 1012.7
20260901002705 52 279 2.0 5.0 0.00 0.01 0.00 90 1012.7
20260901001705 52 207 2.0 5.0 0.00 0.01 0.00 89 1012.8
20260901000705 51 217 0.0 3.0 0.00 0.01 0.00 88 1012.8
20260901000205 51 257 0.0 2.0 0.00 0.01 0.00 88 1012.8
20260831235705 52 243 0.0 2.0 0.00 0.01 0.00 88 1012.9
20260831235204 52 243 0.0 2.0 0.00 0.01 0.00 88 1012.9
20260831234703 52 237 0.0 3.0 0.00 0.01 0.00 88 1012.9
20260831234206 52 259 0.0 4.0 0.00 0.01 0.00 88 1012.9
20260831233705 52 243 0.0 6.0 0.00 0.01 0.00 88 1012.9
20260831233205 52 251 0.0 6.0 0.00 0.01 0.00 88 1012.8
20260831232205 52 295 1.0 8.0 0.00 0.01 0.00 87 1012.9
20260831231704 52 209 2.0 7.0 0.00 0.01 0.00 87 1013.0
20260831231205 52 221 1.0 4.0 0.00 0.01 0.00 87 1013.0
20260831230705 53 209 1.0 4.0 0.00 0.01 0.01 87 1012.9
20260831225206 53 215 1.0 6.0 0.00 0.01 0.01 86 1013.0
20260831224706 53 236 2.0 6.0 0.00 0.01 0.01 86 1013.0
20260831224205 53 232 2.0 6.0 0.00 0.01 0.01 86 1013.0
20260831223705 53 234 2.0 5.0 0.00 0.01 0.01 86 1013.0
20260831223205 53 221 2.0 5.0 0.00 0.01 0.01 85 1012.9
20260831222705 53 216 2.0 5.0 0.00 0.01 0.01 85 1013.0
20260831221205 53 219 1.0 9.0 0.00 0.01 0.01 84 1013.0
20260831220705 53 211 2.0 9.0 0.00 0.01 0.01 84 1013.0
20260831220205 54 225 2.0 10.0 0.00 0.01 0.01 84 1012.9
20260831215707 54 232 2.0 10.0 0.00 0.01 0.01 83 1012.9
20260831214705 54 229 2.0 10.0 0.00 0.01 0.01 82 1012.9
20260831213705 54 196 2.0 4.0 0.00 0.01 0.01 82 1012.9
20260831213208 54 198 1.0 10.0 0.00 0.01 0.01 82 1012.9
20260831212705 54 203 1.0 10.0 0.00 0.01 0.01 82 1012.8
20260831212205 54 248 2.0 10.0 0.00 0.01 0.01 82 1012.8
20260831211705 54 274 3.0 10.0 0.00 0.01 0.01 82 1012.8
20260831211205 54 238 3.0 13.0 0.00 0.01 0.01 82 1012.7
20260831210731 54 257 3.0 13.0 0.00 0.01 0.01 82 1012.7
20260831205705 54 267 3.0 11.0 0.00 0.01 0.01 82 1012.5
20260831204705 54 298 3.0 12.0 0.00 0.01 0.01 82 1012.4
20260831204204 54 275 4.0 12.0 0.00 0.01 0.01 83 1012.4
20260831203704 54 228 4.0 11.0 0.00 0.01 0.01 83 1012.4
20260831203206 54 259 4.0 12.0 0.00 0.01 0.01 83 1012.3
20260831202706 55 241 4.0 12.0 0.00 0.01 0.01 82 1012.2
20260831202205 55 302 4.0 11.0 0.00 0.01 0.01 82 1012.2
20260831201703 55 331 3.0 11.0 0.00 0.01 0.01 82 1012.0
20260831200705 55 268 3.0 11.0 0.00 0.01 0.01 82 1012.0
20260831200205 55 263 3.0 10.0 0.00 0.01 0.01 82 1012.0
20260831195205 55 219 3.0 10.0 0.00 0.01 0.01 83 1011.9
20260831194705 55 250 3.0 10.0 0.00 0.01 0.01 82 1011.9
20260831194205 55 257 3.0 10.0 0.00 0.01 0.01 82 1011.9
20260831192705 55 214 3.0 10.0 0.00 0.01 0.01 82 1011.6
20260831192206 55 242 2.0 10.0 0.00 0.01 0.01 82 1011.6
20260831191705 56 294 2.0 10.0 0.00 0.01 0.01 82 1011.5
20260831191205 56 257 3.0 13.0 0.00 0.01 0.01 81 1011.4
20260831190231 56 232 4.0 15.0 0.00 0.01 0.01 81 1011.2
20260831185705 56 257 4.0 15.0 0.00 0.01 0.01 81 1011.1
20260831185204 56 208 4.0 15.0 0.00 0.01 0.01 81 1011.0
20260831184205 56 232 3.0 9.0 0.00 0.01 0.01 80 1011.0
20260831183205 56 277 4.0 12.0 0.00 0.01 0.01 80 1010.8
20260831182705 57 277 4.0 12.0 0.00 0.01 0.01 80 1010.8
20260831182206 57 266 4.0 12.0 0.00 0.01 0.01 80 1010.7
20260831181705 57 244 5.0 12.0 0.00 0.01 0.01 79 1010.6
20260831181204 57 291 5.0 13.0 0.00 0.01 0.01 79 1010.5
20260831180705 57 281 5.0 13.0 0.00 0.01 0.01 79 1010.4
20260831175705 57 253 5.0 13.0 0.00 0.01 0.01 78 1010.3
20260831175207 58 293 6.0 13.0 0.00 0.01 0.01 78 1010.3
20260831174705 58 291 5.0 15.0 0.00 0.01 0.01 78 1010.2
20260831174205 58 273 6.0 15.0 0.00 0.01 0.01 77 1010.1
20260831173206 59 267 6.0 13.0 0.00 0.01 0.01 76 1010.0
20260831172705 59 287 6.0 14.0 0.00 0.02 0.01 76 1010.0
20260831172206 59 304 6.0 14.0 0.00 0.02 0.01 76 1009.9
20260831171205 60 290 5.0 16.0 0.00 0.03 0.01 77 1009.7
20260831170705 60 268 6.0 16.0 0.00 0.03 0.01 76 1009.7
20260831165705 61 207 7.0 14.0 0.00 0.03 0.01 76 1009.6
20260831165205 61 259 7.0 15.0 0.00 0.03 0.01 76 1009.5
20260831164705 61 225 7.0 19.0 0.00 0.08 0.01 75 1009.4
20260831163709 62 213 7.0 19.0 0.00 0.15 0.01 76 1009.3
20260831163205 62 243 6.0 20.0 0.00 0.21 0.01 76 1009.2
20260831162705 63 260 6.0 20.0 0.00 0.22 0.01 76 1009.2
20260831162205 63 286 6.0 20.0 0.00 0.22 0.01 76 1009.1
20260831161205 63 267 7.0 15.0 0.00 0.22 0.01 76 1009.1
20260831160705 63 222 7.0 15.0 0.00 0.22 0.01 76 1008.9
20260831160205 63 238 7.0 15.0 0.00 0.22 0.01 76 1008.8
20260831155206 63 236 8.0 16.0 0.00 0.22 0.01 74 1008.8
20260831154705 63 281 7.0 16.0 0.00 0.22 0.01 74 1008.7
20260831154208 63 284 8.0 16.0 0.00 0.22 0.01 75 1008.6
20260831153705 63 283 7.0 16.0 0.00 0.22 0.01 76 1008.5
20260831153205 63 283 7.0 19.0 0.00 0.22 0.01 77 1008.4
20260831152705 63 236 7.0 19.0 0.00 0.22 0.01 77 1008.4
20260831152209 64 279 7.0 19.0 0.00 0.22 0.01 76 1008.2
20260831151205 64 257 7.0 14.0 0.00 0.22 0.01 77 1008.1
20260831150205 63 165 6.0 15.0 0.00 0.22 0.01 78 1008.0
20260831145708 63 263 6.0 15.0 0.00 0.22 0.01 78 1007.9
20260831145205 64 331 6.0 15.0 0.00 0.22 0.01 77 1007.8
20260831144705 64 170 7.0 15.0 0.00 0.22 0.01 76 1007.8
20260831144210 64 252 6.0 12.0 0.00 0.22 0.01 76 1007.7
20260831143704 64 259 5.0 11.0 0.00 0.22 0.01 77 1007.7
20260831142708 65 227 5.0 14.0 0.00 0.22 0.01 77 1007.6
20260831142205 65 303 5.0 14.0 0.00 0.22 0.01 77 1007.6
20260831141708 65 261 5.0 14.0 0.00 0.22 0.01 77 1007.6
20260831141205 65 257 5.0 21.0 0.00 0.22 0.01 77 1007.5
20260831140705 65 253 7.0 21.0 0.00 0.22 0.01 76 1007.5
20260831140205 65 269 10.0 13.0 0.00 0.22 0.01 76 1007.4
20260831135705 65 294 8.0 13.0 0.00 0.22 0.01 76 1007.4
20260831135205 64 290 5.0 13.0 0.00 0.22 0.01 78 1007.4
20260831134705 64 278 4.0 13.0 0.00 0.22 0.01 77 1007.4
20260831134205 64 267 5.0 13.0 0.00 0.22 0.01 77 1007.4
20260831133207 65 274 6.0 13.0 0.00 0.22 0.01 78 1007.4
20260831132705 65 269 7.0 16.0 0.00 0.22 0.01 76 1007.3
20260831131705 65 257 6.0 12.0 0.00 0.22 0.01 77 1007.2
20260831130205 65 211 5.0 11.0 0.00 0.22 0.01 77 1006.9
20260831125705 65 296 5.0 11.0 0.00 0.22 0.01 78 1006.8
20260831125205 65 277 4.0 10.0 0.00 0.22 0.01 79 1006.7
20260831124708 65 238 4.0 10.0 0.00 0.22 0.01 79 1006.7
20260831124205 65 296 3.0 15.0 0.00 0.22 0.01 80 1006.7
20260831123709 65 234 3.0 15.0 0.00 0.22 0.01 81 1006.6
20260831123206 65 264 4.0 15.0 0.00 0.22 0.01 82 1006.7
20260831122706 64 246 6.0 16.0 0.00 0.22 0.01 81 1006.7
20260831122206 64 288 5.0 16.0 0.00 0.22 0.01 80 1006.6
20260831121705 64 275 5.0 18.0 0.00 0.23 0.01 81 1006.6
20260831121205 64 252 7.0 18.0 0.00 0.23 0.01 81 1006.5
20260831120705 64 242 7.0 19.0 0.00 0.23 0.01 78 1006.5
20260831120205 66 257 7.0 19.0 0.00 0.23 0.01 78 1006.4
20260831115705 66 214 6.0 14.0 0.00 0.25 0.01 77 1006.3
20260831115206 67 255 6.0 14.0 0.00 0.25 0.01 77 1006.2
20260831114705 67 269 7.0 15.0 0.00 0.28 0.01 78 1006.1
20260831114205 67 274 7.0 15.0 0.00 0.28 0.01 80 1006.0
20260831113705 66 280 5.0 13.0 0.00 0.33 0.01 83 1006.0
20260831113205 64 232 4.0 13.0 0.00 0.33 0.01 82 1006.0
20260831112705 65 238 5.0 14.0 0.00 0.33 0.01 81 1006.0
20260831112205 65 209 5.0 14.0 0.00 0.34 0.01 80 1006.0
20260831111705 66 210 4.0 14.0 0.00 0.34 0.01 79 1006.0
20260831111205 67 265 4.0 11.0 0.00 0.35 0.01 79 1005.9